TimeEDT,TemperatureF,Dew PointF,Humidity,Sea Level PressureIn,VisibilityMPH,Wind Direction,Wind SpeedMPH,Gust SpeedMPH,PrecipitationIn,Events,Conditions,WindDirDegrees,DateUTC
12:06 AM,77.0,60.8,57,30.07,10.0,SSW,5.8,-,N/A,,Clear,210,2013-08-27 04:06:00
12:26 AM,77.0,60.8,57,30.07,10.0,SSW,4.6,-,N/A,,Clear,210,2013-08-27 04:26:00
12:46 AM,73.4,60.8,65,30.07,10.0,SSE,4.6,-,N/A,,Clear,160,2013-08-27 04:46:00
1:06 AM,75.2,60.8,61,30.07,10.0,SE,3.5,-,N/A,,Clear,140,2013-08-27 05:06:00
1:26 AM,73.4,60.8,65,30.06,10.0,South,4.6,-,N/A,,Clear,180,2013-08-27 05:26:00
1:46 AM,73.4,60.8,65,30.05,10.0,SSW,5.8,-,N/A,,Clear,200,2013-08-27 05:46:00
2:06 AM,75.2,62.6,65,30.05,10.0,Calm,Calm,-,N/A,,Clear,0,2013-08-27 06:06:00
2:26 AM,75.2,62.6,65,30.05,10.0,SSW,5.8,-,N/A,,Clear,200,2013-08-27 06:26:00
2:46 AM,73.4,62.6,69,30.04,10.0,South,4.6,-,N/A,,Clear,190,2013-08-27 06:46:00
3:06 AM,73.4,62.6,69,30.05,10.0,SE,4.6,-,N/A,,Clear,130,2013-08-27 07:06:00
3:26 AM,73.4,62.6,69,30.05,10.0,Calm,Calm,-,N/A,,Clear,0,2013-08-27 07:26:00
3:46 AM,73.4,62.6,69,30.04,10.0,SSE,3.5,-,N/A,,Clear,160,2013-08-27 07:46:00
4:06 AM,73.4,62.6,69,30.04,10.0,Calm,Calm,-,N/A,,Clear,0,2013-08-27 08:06:00
4:26 AM,75.2,62.6,65,30.03,10.0,WSW,4.6,-,N/A,,Clear,250,2013-08-27 08:26:00
4:46 AM,77.0,62.6,61,30.03,10.0,West,8.1,16.1,N/A,,Scattered Clouds,260,2013-08-27 08:46:00
5:06 AM,77.0,62.6,61,30.03,10.0,West,10.4,-,N/A,,Scattered Clouds,260,2013-08-27 09:06:00
5:26 AM,77.0,62.6,61,30.04,10.0,WSW,8.1,-,N/A,,Scattered Clouds,250,2013-08-27 09:26:00
5:46 AM,77.0,62.6,61,30.04,10.0,West,8.1,16.1,N/A,,Mostly Cloudy,270,2013-08-27 09:46:00
6:06 AM,77.0,62.6,61,30.04,10.0,WNW,5.8,16.1,N/A,,Mostly Cloudy,290,2013-08-27 10:06:00
6:27 AM,77.0,62.6,61,30.04,10.0,West,6.9,-,N/A,,Scattered Clouds,280,2013-08-27 10:27:00
6:47 AM,77.0,64.4,65,30.05,10.0,West,6.9,-,N/A,,Clear,260,2013-08-27 10:47:00
7:07 AM,77.0,64.4,65,30.05,10.0,West,5.8,-,N/A,,Clear,280,2013-08-27 11:07:00
7:27 AM,75.2,64.4,69,30.05,10.0,West,4.6,-,N/A,,Scattered Clouds,260,2013-08-27 11:27:00
7:47 AM,77.0,64.4,65,30.05,10.0,WSW,6.9,-,N/A,,Mostly Cloudy,250,2013-08-27 11:47:00
8:07 AM,75.2,64.4,69,30.05,7.0,South,3.5,-,N/A,,Overcast,180,2013-08-27 12:07:00
8:27 AM,73.4,66.2,78,30.04,10.0,South,4.6,-,N/A,,Overcast,180,2013-08-27 12:27:00
8:47 AM,73.4,68.0,83,30.04,7.0,SSW,5.8,-,N/A,,Overcast,210,2013-08-27 12:47:00
9:07 AM,77.0,68.0,74,30.04,7.0,SSW,5.8,-,N/A,,Overcast,210,2013-08-27 13:07:00
9:27 AM,78.8,68.0,69,30.04,7.0,West,5.8,-,N/A,,Overcast,270,2013-08-27 13:27:00
9:47 AM,78.8,68.0,69,30.04,7.0,West,4.6,-,N/A,,Mostly Cloudy,280,2013-08-27 13:47:00
10:07 AM,77.0,66.2,69,30.04,7.0,West,8.1,-,N/A,,Overcast,270,2013-08-27 14:07:00
10:27 AM,78.8,68.0,69,30.05,7.0,West,4.6,-,N/A,,Mostly Cloudy,270,2013-08-27 14:27:00
10:47 AM,78.8,68.0,69,30.04,7.0,WSW,3.5,-,N/A,,Mostly Cloudy,240,2013-08-27 14:47:00
11:07 AM,78.8,68.0,69,30.05,7.0,SW,4.6,-,N/A,,Overcast,220,2013-08-27 15:07:00
11:27 AM,78.8,68.0,69,30.05,7.0,Calm,Calm,-,N/A,,Mostly Cloudy,0,2013-08-27 15:27:00
11:47 AM,80.6,68.0,65,30.05,7.0,West,5.8,-,N/A,,Mostly Cloudy,260,2013-08-27 15:47:00
12:07 PM,80.6,68.0,65,30.05,7.0,West,8.1,-,N/A,,Mostly Cloudy,270,2013-08-27 16:07:00
12:27 PM,82.4,68.0,62,30.04,7.0,West,10.4,17.3,N/A,,Scattered Clouds,270,2013-08-27 16:27:00
12:47 PM,82.4,68.0,62,30.03,7.0,West,6.9,-,N/A,,Scattered Clouds,280,2013-08-27 16:47:00
1:07 PM,82.4,68.0,62,30.03,7.0,West,6.9,-,N/A,,Mostly Cloudy,270,2013-08-27 17:07:00
1:27 PM,80.6,68.0,65,30.03,7.0,WSW,10.4,-,N/A,,Mostly Cloudy,240,2013-08-27 17:27:00
1:47 PM,80.6,68.0,65,30.03,7.0,West,6.9,-,N/A,,Mostly Cloudy,270,2013-08-27 17:47:00
2:07 PM,78.8,68.0,69,30.04,7.0,West,11.5,24.2,N/A,,Mostly Cloudy,280,2013-08-27 18:07:00
2:27 PM,80.6,66.2,61,30.03,7.0,West,10.4,-,N/A,,Mostly Cloudy,270,2013-08-27 18:27:00
2:47 PM,78.8,68.0,69,30.02,7.0,West,6.9,-,N/A,,Mostly Cloudy,280,2013-08-27 18:47:00
3:07 PM,80.6,68.0,65,30.02,7.0,West,12.7,-,N/A,,Mostly Cloudy,270,2013-08-27 19:07:00
3:28 PM,80.6,68.0,65,30.01,7.0,West,11.5,-,N/A,,Scattered Clouds,270,2013-08-27 19:28:00
3:48 PM,80.6,66.2,61,30.00,10.0,WNW,6.9,-,N/A,,Clear,290,2013-08-27 19:48:00
4:08 PM,80.6,66.2,61,29.99,10.0,West,4.6,-,N/A,,Clear,260,2013-08-27 20:08:00
4:28 PM,82.4,68.0,62,29.99,10.0,SSW,6.9,-,N/A,,Clear,200,2013-08-27 20:28:00
4:48 PM,82.4,68.0,62,29.99,10.0,South,8.1,-,N/A,,Clear,180,2013-08-27 20:48:00
5:08 PM,82.4,68.0,62,29.99,10.0,SSE,4.6,-,N/A,,Clear,160,2013-08-27 21:08:00
5:28 PM,82.4,68.0,62,29.98,10.0,South,6.9,-,N/A,,Clear,180,2013-08-27 21:28:00
5:48 PM,82.4,68.0,62,29.98,10.0,South,4.6,-,N/A,,Clear,190,2013-08-27 21:48:00
6:08 PM,80.6,69.8,70,29.97,10.0,South,4.6,-,N/A,,Clear,190,2013-08-27 22:08:00
6:28 PM,80.6,68.0,65,29.97,10.0,SSE,5.8,-,N/A,,Clear,160,2013-08-27 22:28:00
6:48 PM,80.6,69.8,70,29.97,10.0,Calm,Calm,-,N/A,,Scattered Clouds,0,2013-08-27 22:48:00
7:08 PM,78.8,69.8,74,29.98,10.0,Calm,Calm,-,N/A,,Mostly Cloudy,0,2013-08-27 23:08:00
7:28 PM,78.8,66.2,65,29.99,10.0,WSW,3.5,-,N/A,,Mostly Cloudy,250,2013-08-27 23:28:00
7:48 PM,80.6,64.4,58,30.00,10.0,Calm,Calm,-,N/A,,Mostly Cloudy,0,2013-08-27 23:48:00
8:08 PM,80.6,62.6,54,29.99,10.0,West,4.6,-,N/A,,Scattered Clouds,260,2013-08-28 00:08:00
8:28 PM,78.8,62.6,57,30.00,10.0,Calm,Calm,-,N/A,,Clear,0,2013-08-28 00:28:00
8:48 PM,78.8,62.6,57,30.00,10.0,West,3.5,-,N/A,,Clear,270,2013-08-28 00:48:00
9:08 PM,78.8,64.4,61,30.01,10.0,WSW,5.8,-,N/A,,Scattered Clouds,250,2013-08-28 01:08:00
9:28 PM,78.8,64.4,61,30.01,10.0,West,5.8,-,N/A,,Clear,270,2013-08-28 01:28:00
9:48 PM,77.0,64.4,65,30.01,10.0,Calm,Calm,-,N/A,,Scattered Clouds,0,2013-08-28 01:48:00
10:08 PM,78.8,64.4,61,30.01,10.0,WNW,3.5,-,N/A,,Scattered Clouds,290,2013-08-28 02:08:00
10:28 PM,75.2,66.2,73,30.00,10.0,SE,4.6,-,N/A,,Mostly Cloudy,140,2013-08-28 02:28:00
10:48 PM,75.2,66.2,73,30.00,10.0,Calm,Calm,-,N/A,,Scattered Clouds,0,2013-08-28 02:48:00
11:08 PM,75.2,66.2,73,30.00,10.0,Calm,Calm,-,N/A,,Scattered Clouds,0,2013-08-28 03:08:00
11:28 PM,73.4,66.2,78,30.01,10.0,Calm,Calm,-,N/A,,Clear,0,2013-08-28 03:28:00
11:49 PM,73.4,66.2,78,30.00,10.0,NE,3.5,-,N/A,,Scattered Clouds,40,2013-08-28 03:49:00